Погода в Куяре

Россия / Республика Марий Эл     56°32′59″N   47°59′11″E
темп.,
°C
ветер,
м/с
пор.,
м/с
влажн.,
%
обл.,
%
осадки,
мм/ч
давл.,
гПа
погр.,
м
16 сентября, чт
чт1600:00+4з3108362 0.1 1007291
03:00+6сз5108099 0.1 10081085
06:00+4сз4881100 0.0 1009723
09:00+6сз4882100 0.1 1010801
12:00+7сз4777100 0.2 1011879
15:00+7сз5879100 0.4 10121051
18:00+7сз4108375 0.0 1013768
21:00+6сз3982100 0.0 1013520
17 сентября, пт
пт1700:00+6сз4979100 0.0 1014448
03:00+6зсз3876100 0.1 1014407
06:00+6зсз3874100 0.0 1014379
09:00+8сз4652100 0.1 10141486
12:00+9сз4647100 0.1 10151805
15:00+9сз4650100 0.1 10151464
18:00+6зсз266595 0.0 1016114
21:00+4сз398687 0.1 1017242
18 сентября, сб
сб1800:00+3сз2793100 0.0 1017195
03:00+2сз399856 0.0 1018319
06:00+4ссз388999 0.1 1019763
09:00+6с4766100 0.1 10201010
12:00+8ссз464899 0.1 10211737
15:00+8ссз564998 0.1 10221668
18:00+6сз385898 0.0 1022782
21:00+5ссз487358 0.1 1023714
19 сентября, вс
вс1900:000ссз29886 0.0 1024253
03:00+2сз277696 0.0 1024329
06:000сз39825 0.0 1025213
09:00+6сз465628 0.0 1025768
12:00+9сз4547100 0.0 10251353
15:00+10ссз454698 0.0 10241418
18:00+5ссз2266100 0.0 102411
21:00+3св2576100 0.0 102691
20 сентября, пн
пн2000:00+1всв2684100 0.0 1027132
03:00+1всв2684100 0.0 1027146
06:00+1всв2680100 0.0 1027206
09:00+5в3561100 0.0 1028623
12:00+7в3451100 0.0 1027921
15:00+8в3448100 0.0 10271021
18:00+6в3758100 0.0 1027306
21:00+5в2763100 0.0 1028239